Location: Frydek-Mistek
(49.6830°N, 18.3330°E)
Time: 00:11:46
(UTC+02:00)

ISS - Visible Passes

Search period start: 02 October 2020 00:00
Search period end: 12 October 2020 00:00
Orbit: 419 x 421 km, 51.6° (Epoch: 02 October)

Date Brightness Start Highest point End Pass type
(mag) Time Alt. Az. Time Alt. Az. Time Alt. Az.
02 Oct -2.7 20:19:53 10° W 20:23:01 36° SSW 20:23:18 35° SSW visible
03 Oct -3.2 19:32:32 10° WNW 19:35:49 51° SSW 19:37:58 19° SE visible
03 Oct -0.6 21:10:52 10° WSW 21:10:57 10° WSW 21:10:57 10° WSW visible
04 Oct -1.5 20:22:39 10° W 20:24:57 17° SW 20:25:41 16° SSW visible
05 Oct -1.8 19:35:00 10° W 19:37:48 25° SW 19:40:31 11° SSE visible
06 Oct -2.3 18:47:29 10° W 18:50:37 35° SSW 18:53:44 10° SE visible
07 Oct -0.7 19:38:29 10° WSW 19:39:34 11° SW 19:40:39 10° SSW visible
08 Oct -1.0 18:50:11 10° W 18:52:27 17° SW 18:54:42 10° S visible
